Terminal Aerodrome Forecast
Issued by NWS

Home | Current Version | Previous Version | Text Only | Print | Product List | Glossary On
Versions: 1 2 3 4 5 6 7 8 9 10 11 12 13 14 15 16 17 18 19 20 21 22 23 24 25 26 27
987
FTUS42 KKEY 251120
TAFMTH
TAF
KMTH 251120Z 2512/2612 VRB03KT P6SM SCT022
     FM251800 32006KT P6SM FEW022
     FM260600 36006KT P6SM SCT022=

USA.gov is the U.S. government's official web portal to all federal, state and local government web resources and services.